Temp
-19 -19 -20 -19 -19 -19 -18 -18 -19 -18 -18 -19 -18 -18 -17 -18 -17 -17 -17 -16 -16 -16 -16 -16 -16 -16 -16 -16 -16 -16 -16 -15 -15 -15 -16 -15 -16 -16 -16 -16 -15 -15 -15
-19 -19 -20 -20 -20 -20 -19 -19 -19 -19 -18 -19 -18 -18 -17 -18 -17 -17 -16 -16 -16 -16 -17 -17 -17 -17 -17 -17 -17 -17 -17 -16 -16 -16 -16 -16 -16 -16 -16 -16 -16 -16 -16
-19 -19 -20 -20 -20 -20 -20 -20 -19 -19 -19 -19 -19 -19 -18 -18 -18 -18 -17 -17 -17 -18 -18 -17 -17 -17 -17 -19 -18 -18 -18 -18 -17 -17 -16 -16 -17 -17 -17 -17 -16 -17 -17
-19 -19 -19 -19 -19 -20 -20 -20 -20 -19 -19 -19 -19 -19 -19 -19 -19 -19 -19 -18 -18 -19 -19 -19 -18 -18 -18 -18 -18 -18 -18 -17 -17 -17 -17 -17 -17 -17 -17 -17 -17 -17 -17
-20 -20 -20 -20 -20 -20 -20 -20 -20 -20 -19 -19 -19 -19 -19 -19 -19 -19 -19 -19 -19 -19 -19 -19 -18 -18 -18 -18 -17 -17 -17 -17 -17 -17 -17 -17 -17 -17 -17 -17 -17 -17 -17
-20 -20 -20 -20 -20 -20 -20 -20 -20 -19 -19 -19 -19 -19 -19 -19 -19 -19 -19 -19 -19 -19 -19 -19 -19 -19 -18 -18 -18 -17 -17 -17 -17 -17 -17 -17 -17 -17 -17 -17 -18 -17 -17
-21 -21 -21 -21 -21 -21 -20 -20 -20 -20 -20 -19 -19 -19 -19 -19 -19 -20 -20 -20 -20 -19 -19 -19 -19 -19 -19 -18 -18 -18 -18 -18 -18 -18 -18 -18 -18 -18 -18 -17 -17 -18 -17
-21 -21 -21 -21 -21 -21 -20 -20 -20 -20 -20 -21 -20 -20 -20 -20 -20 -20 -19 -19 -19 -19 -19 -19 -19 -19 -19 -19 -19 -19 -19 -19 -19 -19 -18 -18 -18 -18 -18 -18 -18 -18 -18
-22 -22 -22 -22 -22 -22 -21 -21 -21 -21 -21 -21 -21 -21 -21 -20 -20 -20 -20 -20 -20 -20 -20 -20 -20 -20 -20 -20 -20 -20 -20 -19 -20 -20 -19 -19 -19 -19 -19 -19 -18 -18 -18
-23 -23 -23 -23 -23 -22 -23 -23 -22 -22 -22 -22 -21 -21 -21 -21 -21 -20 -20 -20 -20 -20 -20 -20 -20 -20 -20 -20 -19 -19 -19 -20 -20 -20 -20 -20 -20 -19 -20 -20 -20 -19 -19
-23 -23 -23 -23 -23 -23 -23 -23 -22 -22 -22 -22 -22 -21 -21 -21 -21 -21 -21 -20 -20 -20 -20 -20 -20 -20 -19 -19 -20 -20 -19 -19 -19 -19 -20 -20 -20 -20 -20 -20 -20 -19 -19
-24 -24 -24 -24 -24 -24 -23 -23 -23 -23 -23 -23 -22 -22 -22 -22 -21 -21 -21 -21 -21 -20 -21 -21 -21 -22 -22 -22 -22 -22 -23 -23 -22 -22 -22 -22 -22 -23 -23 -23 -22 -22 -22
-24 -24 -24 -24 -24 -24 -24 -24 -24 -23 -23 -23 -23 -23 -23 -23 -23 -23 -24 -24 -24 -24 -24 -25 -26 -26 -27 -27 -28 -28 -27 -27 -28 -27 -27 -27 -27 -27 -27 -27 -28 -27 -26
-25 -24 -24 -24 -24 -24 -24 -24 -24 -24 -24 -24 -25 -25 -26 -26 -27 -27 -28 -29 -29 -29 -29 -29 -29 -29 -29 -29 -30 -30 -30 -30 -30 -30 -30 -30 -30 -31 -30 -30 -30 -30 -30
-25 -25 -25 -25 -25 -25 -25 -26 -26 -27 -27 -27 -28 -28 -28 -29 -29 -30 -30 -30 -31 -31 -31 -31 -31 -31 -31 -31 -31 -31 -31 -31 -31 -31 -31 -31 -31 -31 -31 -31 -30 -30 -30
-25 -26 -26 -26 -27 -27 -28 -28 -29 -29 -29 -30 -30 -30 -30 -31 -31 -31 -32 -32 -32 -32 -32 -32 -32 -33 -32 -32 -32 -32 -32 -32 -31 -31 -31 -31 -31 -31 -31 -31 -31 -31 -30
-26 -27 -28 -28 -29 -29 -30 -30 -30 -31 -31 -31 -32 -32 -32 -32 -33 -33 -34 -34 -34 -34 -34 -33 -33 -33 -33 -33 -33 -33 -32 -32 -32 -32 -32 -32 -32 -31 -31 -31 -31 -31 -31
-29 -29 -30 -30 -31 -31 -31 -32 -32 -32 -32 -34 -34 -34 -34 -34 -34 -34 -35 -35 -35 -35 -35 -35 -35 -35 -35 -34 -34 -34 -33 -33 -33 -33 -32 -32 -32 -32 -32 -32 -32 -32 -32
-30 -30 -31 -32 -32 -32 -33 -33 -33 -33 -34 -34 -35 -35 -36 -36 -36 -36 -36 -36 -36 -36 -36 -36 -36 -36 -36 -35 -35 -34 -34 -34 -34 -34 -33 -33 -33 -32 -32 -32 -32 -32 -32
-31 -32 -32 -33 -33 -34 -34 -34 -34 -35 -35 -35 -36 -35 -35 -36 -37 -37 -37 -37 -37 -37 -37 -37 -37 -37 -37 -36 -35 -35 -35 -34 -34 -34 -34 -34 -34 -34 -33 -33 -33 -33 -32
-32 -33 -33 -34 -34 -34 -34 -34 -35 -35 -36 -36 -36 -37 -36 -37 -37 -38 -38 -37 -37 -37 -37 -38 -38 -38 -37 -37 -36 -35 -35 -35 -35 -34 -34 -34 -34 -34 -34 -33 -33 -33 -33
-33 -33 -34 -34 -34 -35 -35 -35 -35 -36 -36 -36 -37 -37 -37 -38 -38 -39 -39 -39 -38 -39 -39 -39 -39 -39 -38 -37 -36 -36 -36 -35 -35 -35 -35 -34 -34 -34 -34 -34 -33 -33 -33
-33 -34 -34 -34 -35 -35 -35 -35 -36 -36 -37 -37 -37 -37 -38 -38 -39 -39 -40 -40 -40 -40 -40 -40 -40 -39 -38 -37 -37 -36 -36 -36 -35 -35 -35 -35 -35 -34 -34 -33 -33 -33 -33
-34 -34 -34 -35 -35 -35 -35 -36 -36 -36 -37 -37 -37 -37 -38 -38 -39 -39 -40 -40 -40 -40 -40 -40 -39 -39 -38 -37 -37 -37 -36 -36 -36 -35 -35 -35 -35 -34 -34 -33 -33 -33 -33
-34 -34 -35 -35 -35 -36 -36 -36 -36 -37 -37 -37 -38 -38 -38 -38 -39 -39 -39 -39 -40 -40 -39 -39 -39 -38 -38 -37 -37 -37 -36 -36 -36 -36 -35 -35 -35 -34 -34 -34 -33 -33 -33
-35 -35 -35 -35 -35 -36 -36 -36 -36 -37 -37 -38 -38 -38 -38 -38 -39 -39 -39 -39 -39 -39 -39 -38 -38 -38 -38 -37 -37 -37 -36 -36 -36 -36 -35 -35 -35 -34 -34 -34 -34 -33 -33
Height
5624 5623 5622 5621 5619 5618 5617 5616 5614 5613 5613 5614 5613 5617 5617 5619 5620 5623 5627 5630 5629 5631 5630 5631 5631 5633 5635 5635 5636 5637 5638 5640 5642 5646 5646 5646 5647 5649 5649 5650 5653 5656 5658
5616 5614 5613 5611 5611 5609 5607 5607 5606 5605 5605 5604 5605 5605 5607 5608 5608 5608 5612 5613 5615 5617 5617 5617 5616 5617 5619 5621 5621 5621 5621 5623 5626 5628 5629 5629 5630 5629 5629 5633 5637 5637 5637
5607 5606 5604 5602 5600 5599 5599 5599 5597 5596 5596 5596 5594 5595 5595 5596 5597 5597 5597 5599 5600 5602 5601 5601 5602 5603 5603 5604 5605 5605 5606 5607 5609 5611 5614 5612 5614 5614 5614 5615 5617 5619 5618
5598 5596 5594 5592 5590 5588 5587 5587 5587 5587 5586 5585 5584 5584 5585 5585 5586 5587 5587 5587 5587 5586 5585 5587 5588 5588 5588 5589 5588 5589 5591 5591 5592 5593 5594 5595 5596 5596 5596 5598 5599 5601 5602
5587 5585 5583 5582 5580 5578 5577 5575 5573 5572 5572 5572 5572 5572 5571 5572 5571 5571 5570 5571 5570 5569 5570 5571 5571 5571 5571 5571 5572 5572 5572 5573 5574 5574 5575 5576 5577 5578 5578 5579 5581 5583 5583
5576 5574 5571 5570 5568 5566 5565 5563 5561 5559 5557 5556 5555 5554 5554 5554 5553 5553 5553 5553 5553 5554 5553 5553 5552 5552 5553 5552 5552 5552 5552 5553 5553 5553 5554 5554 5555 5555 5555 5555 5557 5558 5562
5565 5562 5560 5557 5554 5552 5550 5548 5546 5545 5543 5541 5540 5538 5537 5536 5536 5536 5536 5536 5534 5534 5534 5534 5532 5531 5530 5531 5530 5531 5531 5533 5533 5531 5532 5533 5533 5532 5532 5531 5532 5534 5538
5552 5549 5547 5544 5541 5538 5535 5533 5531 5528 5527 5525 5524 5522 5520 5517 5515 5513 5512 5512 5512 5512 5512 5510 5509 5509 5508 5507 5507 5507 5507 5507 5507 5507 5509 5510 5508 5508 5507 5507 5508 5510 5514
5538 5535 5532 5530 5527 5524 5521 5518 5515 5512 5509 5507 5505 5503 5502 5499 5497 5495 5492 5490 5488 5487 5486 5485 5483 5483 5481 5481 5483 5483 5484 5483 5481 5481 5482 5482 5482 5480 5478 5478 5483 5481 5488
5523 5520 5517 5513 5510 5507 5505 5502 5499 5496 5492 5489 5486 5483 5480 5477 5474 5472 5469 5467 5466 5464 5463 5459 5457 5456 5455 5451 5451 5452 5455 5453 5452 5454 5456 5454 5453 5452 5450 5447 5451 5453 5456
5508 5504 5501 5497 5493 5490 5487 5483 5480 5477 5473 5470 5466 5462 5458 5455 5450 5446 5442 5439 5435 5433 5431 5428 5426 5423 5423 5421 5419 5419 5419 5419 5420 5423 5421 5419 5416 5416 5416 5415 5416 5418 5423
5491 5488 5484 5481 5477 5473 5469 5464 5459 5455 5452 5447 5443 5439 5434 5430 5426 5421 5416 5412 5407 5406 5402 5398 5395 5391 5389 5387 5385 5383 5384 5385 5388 5388 5388 5389 5387 5385 5383 5381 5381 5381 5384
5477 5473 5469 5464 5460 5454 5449 5443 5437 5431 5427 5421 5416 5411 5406 5401 5397 5392 5386 5381 5376 5374 5372 5370 5368 5365 5363 5361 5357 5355 5355 5356 5356 5357 5358 5358 5356 5356 5355 5353 5351 5350 5354
5462 5457 5452 5446 5441 5435 5428 5421 5415 5409 5403 5397 5391 5386 5380 5375 5369 5364 5360 5356 5352 5348 5346 5345 5344 5342 5341 5339 5337 5336 5335 5335 5335 5336 5336 5337 5336 5335 5334 5332 5333 5332 5333
5445 5439 5433 5427 5420 5414 5407 5399 5392 5385 5379 5373 5367 5361 5355 5350 5344 5339 5335 5331 5328 5325 5323 5323 5322 5321 5320 5320 5319 5319 5319 5319 5319 5319 5320 5320 5319 5318 5317 5315 5315 5315 5316
5427 5421 5414 5408 5401 5394 5388 5380 5371 5364 5356 5349 5343 5336 5332 5326 5322 5318 5313 5309 5306 5303 5302 5302 5301 5300 5300 5299 5300 5300 5301 5301 5301 5302 5303 5303 5303 5302 5301 5300 5298 5298 5299
5411 5404 5397 5390 5383 5376 5368 5361 5355 5345 5335 5328 5322 5316 5311 5307 5302 5297 5293 5289 5286 5281 5279 5279 5279 5279 5278 5278 5278 5280 5282 5282 5283 5285 5286 5286 5286 5286 5286 5285 5284 5283 5283
5395 5388 5381 5374 5367 5360 5353 5346 5338 5331 5324 5315 5305 5297 5291 5286 5280 5276 5271 5267 5266 5261 5259 5259 5259 5258 5258 5259 5259 5260 5261 5263 5264 5265 5267 5268 5269 5269 5270 5269 5268 5268 5268
5381 5374 5368 5361 5354 5347 5339 5331 5323 5314 5307 5299 5292 5284 5275 5269 5263 5257 5250 5245 5243 5241 5239 5238 5239 5241 5242 5242 5243 5244 5245 5246 5247 5248 5250 5251 5252 5253 5255 5255 5255 5254 5254
5368 5362 5357 5350 5343 5335 5327 5319 5309 5301 5293 5285 5277 5269 5261 5254 5248 5240 5232 5225 5220 5217 5216 5217 5219 5222 5225 5227 5229 5230 5231 5232 5233 5235 5237 5238 5239 5240 5242 5243 5242 5243 5243
5359 5352 5346 5339 5332 5325 5317 5307 5297 5288 5280 5272 5263 5254 5246 5237 5230 5222 5214 5205 5197 5193 5192 5194 5199 5204 5209 5213 5216 5218 5219 5220 5221 5224 5226 5228 5229 5230 5231 5232 5232 5233 5234
5350 5343 5337 5330 5323 5316 5307 5297 5287 5278 5270 5261 5252 5243 5234 5225 5217 5208 5199 5190 5182 5176 5175 5178 5184 5191 5196 5200 5204 5207 5209 5210 5212 5215 5217 5219 5220 5221 5222 5222 5223 5225 5226
5342 5336 5329 5322 5314 5306 5298 5288 5278 5270 5261 5252 5243 5235 5227 5218 5210 5201 5192 5183 5176 5171 5169 5172 5177 5182 5187 5191 5194 5197 5200 5202 5205 5208 5210 5212 5213 5213 5214 5215 5217 5219 5220
5333 5327 5321 5313 5306 5298 5290 5281 5271 5262 5253 5245 5236 5228 5220 5213 5205 5197 5189 5182 5175 5171 5170 5171 5174 5177 5181 5185 5188 5191 5194 5197 5200 5202 5204 5206 5206 5207 5208 5209 5210 5212 5214
5326 5320 5313 5306 5299 5292 5284 5275 5265 5256 5248 5240 5232 5224 5216 5209 5202 5195 5189 5183 5179 5175 5173 5173 5174 5176 5179 5181 5184 5187 5190 5193 5196 5197 5199 5200 5201 5201 5202 5203 5204 5206 5208
5318 5312 5306 5300 5293 5285 5278 5269 5260 5251 5243 5235 5227 5220 5213 5207 5201 5196 5191 5186 5183 5179 5177 5177 5177 5178 5180 5182 5184 5186 5189 5190 5192 5194 5195 5196 5197 5197 5198 5198 5200 5202 5205
Wind_Speed
30 29 31 33 32 30 28 27 22 37 40 38 34 38 39 43 48 53 61 62 57 59 57 56 57 60 62 64 67 69 68 67 67 62 64 71 73 80 81 82 81 82 84
33 33 32 32 31 35 34 29 29 25 32 27 35 37 40 47 47 52 63 61 57 63 61 54 52 51 50 52 53 52 50 52 53 52 56 56 54 57 65 81 83 79 81
31 32 34 33 34 34 34 35 33 32 32 33 33 34 39 38 39 42 51 53 54 50 47 48 47 48 49 47 49 51 53 55 56 54 56 57 57 59 57 57 60 58 58
35 35 33 33 34 34 36 38 38 38 39 39 39 39 41 42 44 45 47 49 52 51 49 52 53 54 54 56 57 57 59 60 61 62 61 61 62 63 63 62 64 64 63
38 38 38 38 39 39 40 41 42 42 42 43 45 46 48 49 50 51 52 54 54 55 57 59 59 60 61 61 63 64 65 66 67 68 69 70 70 70 71 71 70 71 70
39 40 41 43 43 44 45 46 48 49 50 50 51 52 52 53 54 56 57 58 59 61 62 64 64 67 68 69 71 71 71 73 73 73 73 75 76 77 77 78 77 77 76
41 42 43 45 47 48 49 50 51 52 52 54 55 56 57 58 58 57 58 59 59 60 62 64 65 68 69 71 71 72 73 76 77 77 77 78 78 80 81 82 83 83 82
42 43 44 45 47 48 50 51 52 54 54 54 55 56 58 60 62 64 65 66 67 68 69 69 70 71 72 73 73 74 75 78 78 80 78 78 79 81 83 84 84 85 84
44 45 46 47 48 49 51 53 54 55 55 58 60 62 62 64 65 67 69 71 73 75 75 75 75 75 76 77 77 77 79 80 81 82 83 84 86 87 89 91 90 92 91
49 49 50 50 50 51 53 54 55 56 58 60 63 66 69 70 72 72 73 74 74 76 77 77 79 81 82 84 86 86 86 87 87 87 87 88 90 92 93 94 94 95 95
51 51 52 52 53 53 54 56 59 61 63 65 67 70 71 73 74 77 79 80 81 82 83 86 88 89 90 91 91 93 95 97 97 96 95 96 97 99 100 100 102 103 103
52 51 52 53 55 57 60 64 66 68 69 69 70 72 74 76 77 79 82 83 85 87 88 90 90 90 91 91 91 89 86 88 90 91 91 90 90 89 88 93 96 97 99
51 52 54 57 61 65 67 69 70 71 72 74 76 77 78 80 80 81 82 82 82 83 85 81 77 74 71 68 66 66 66 64 63 65 66 66 67 69 73 78 82 85 87
52 56 59 62 66 68 69 70 71 73 74 76 76 77 77 76 76 75 74 72 71 71 72 71 68 66 63 61 60 58 56 54 54 53 51 50 50 50 53 57 59 62 64
57 60 63 64 66 68 69 69 69 70 71 71 72 72 72 70 69 69 68 68 68 67 67 67 65 64 63 61 59 57 56 54 54 53 51 50 50 51 52 53 54 55 56
59 60 61 62 63 63 63 63 65 66 66 66 66 66 65 65 64 64 64 64 64 63 61 60 61 63 64 63 62 60 59 57 55 54 53 52 52 52 51 52 53 54 54
57 57 56 57 58 58 59 59 58 58 60 61 61 62 62 61 61 60 59 59 58 59 59 59 59 57 56 58 60 61 60 59 58 56 54 53 53 52 52 52 53 54 52
51 51 52 53 52 51 51 51 52 53 53 53 55 58 58 58 58 58 58 58 57 58 58 56 53 51 52 53 51 51 52 54 56 56 55 55 55 54 53 53 53 50 47
48 47 46 45 45 47 48 50 52 51 50 50 50 51 53 54 55 55 56 57 57 56 55 54 53 50 47 44 45 46 45 44 46 48 50 51 51 51 49 47 43 41 39
42 41 41 42 43 45 48 51 49 47 46 46 47 48 49 50 50 53 56 58 58 58 57 55 51 47 44 42 39 38 38 40 40 40 39 39 39 38 37 36 36 33 30
38 40 40 41 43 45 47 50 48 44 45 46 47 47 48 48 48 47 49 50 50 49 47 47 45 42 40 38 37 36 35 33 34 33 31 30 31 32 32 31 29 26 25
37 38 39 40 41 43 45 49 46 44 44 45 43 42 43 43 42 42 42 40 36 33 30 31 33 33 33 33 32 31 30 29 27 26 26 26 27 27 27 26 24 23 24
36 36 38 39 40 42 43 48 45 44 43 43 40 37 37 37 35 35 33 30 24 18 16 17 21 25 26 26 25 24 23 23 22 22 23 23 23 23 23 23 24 23 21
35 36 38 39 40 40 42 45 45 43 41 40 37 35 34 32 30 29 27 24 19 13 9 9 13 17 19 18 17 16 17 19 19 19 19 18 18 19 21 21 22 22 22
34 36 37 38 39 39 40 42 43 40 39 37 35 33 31 28 26 24 23 20 17 12 7 3 4 7 9 10 11 12 14 14 14 15 15 15 16 17 17 17 18 20 20
34 35 36 37 38 39 39 39 42 39 38 37 34 31 29 26 23 21 19 17 14 10 7 3 1 2 4 6 7 8 9 10 11 12 13 13 13 14 14 13 14 17 15
Wind_Direction
278 279 285 289 282 275 273 274 256 242 250 250 227 247 253 252 240 240 246 248 253 254 260 255 253 255 255 257 257 257 258 261 263 257 260 259 257 257 256 257 258 258 258
277 278 279 276 278 281 278 273 273 270 252 254 240 235 246 247 242 240 242 244 246 249 246 246 248 247 250 252 249 250 253 255 256 257 258 260 263 265 261 255 258 264 263
283 278 276 275 273 271 269 269 268 268 265 264 266 266 256 256 256 251 249 247 246 257 260 259 262 263 262 262 265 267 269 270 270 266 264 263 263 265 263 261 263 264 264
286 286 285 281 278 275 272 269 266 262 263 264 263 263 264 262 262 261 257 258 259 261 265 265 264 265 264 266 266 266 267 268 268 268 269 267 267 267 267 265 265 265 263
285 283 283 284 283 281 279 277 274 271 267 265 264 263 262 261 260 262 265 264 264 264 263 263 265 266 266 265 265 265 265 266 266 268 268 268 267 266 266 265 264 263 264
285 285 285 283 281 280 278 278 276 275 273 271 269 269 270 268 267 266 265 266 265 265 266 266 266 265 265 266 266 265 266 267 267 267 267 267 267 267 268 268 268 268 266
279 279 281 281 282 281 281 281 280 278 276 275 274 273 271 271 270 268 267 266 266 266 267 268 269 269 269 268 268 268 267 266 266 266 266 266 266 267 267 267 267 267 268
281 281 280 279 279 279 279 279 279 279 278 276 274 273 274 274 274 275 274 273 271 271 271 272 271 271 270 270 269 270 271 270 270 269 267 267 267 266 266 266 266 267 267
282 281 280 280 279 278 277 277 278 278 278 277 277 275 274 274 274 273 273 274 274 275 276 276 275 273 272 271 272 271 271 270 269 268 269 269 269 269 268 267 267 267 268
286 285 285 284 282 282 283 283 281 280 280 279 279 279 279 278 278 277 276 274 273 274 276 277 277 277 276 277 276 275 274 274 273 271 270 270 270 269 269 269 269 269 268
287 287 286 285 286 286 286 285 285 285 285 284 283 282 282 281 281 280 280 280 281 281 281 281 281 280 279 280 280 280 278 277 277 277 278 278 277 275 274 272 272 271 269
288 287 288 289 289 289 289 289 289 288 287 286 285 284 284 284 283 283 283 283 283 282 284 285 285 285 285 284 284 283 282 281 280 279 277 275 273 271 270 270 270 270 270
290 291 291 292 293 293 293 292 292 292 291 291 290 289 289 288 287 286 286 286 286 286 285 285 284 284 283 283 282 282 282 281 279 277 275 272 269 267 264 263 263 263 264
293 294 295 295 295 294 293 293 292 291 291 291 290 289 289 289 288 288 287 286 285 283 282 282 281 280 280 279 279 279 279 279 279 278 276 274 271 269 267 266 265 266 267
296 296 296 295 295 294 294 294 294 293 292 292 291 290 289 289 288 287 286 284 282 280 279 278 276 276 274 273 273 272 272 273 273 274 274 274 273 273 272 272 272 271 271
297 296 296 296 295 296 296 297 297 296 295 295 293 292 291 290 288 286 285 283 282 281 280 278 275 272 271 270 270 270 270 270 270 270 271 271 271 271 271 272 274 275 275
297 298 299 300 301 301 302 301 301 301 300 298 296 294 292 290 288 287 285 284 283 281 280 277 275 274 273 271 269 267 266 267 268 269 270 270 270 270 272 273 275 277 278
302 304 305 305 306 307 306 306 306 304 301 300 300 298 296 295 293 291 288 285 282 280 278 276 276 274 272 270 271 270 268 266 265 265 266 267 269 270 272 273 275 277 277
307 308 309 311 311 312 314 315 313 309 306 304 302 299 298 297 295 293 290 288 285 282 278 275 272 270 270 271 269 268 269 269 267 265 265 264 266 268 270 272 273 273 273
312 313 314 315 317 318 319 321 317 313 310 309 306 304 302 299 297 294 292 289 285 281 276 272 269 265 265 265 267 267 266 265 264 264 265 266 265 266 266 268 270 269 264
316 317 318 318 318 321 323 325 322 318 317 316 313 310 309 307 305 303 301 297 292 284 275 266 261 259 258 260 260 262 264 265 261 259 262 262 261 262 267 268 265 260 259
319 321 321 320 319 322 325 330 326 322 321 322 320 318 317 316 315 315 314 310 303 292 275 261 254 252 253 256 256 258 261 260 255 254 258 258 262 266 269 266 260 258 263
321 323 323 323 323 326 328 332 329 327 326 326 325 324 324 324 325 326 327 325 321 308 284 259 246 245 249 255 255 254 252 249 246 249 254 260 265 265 261 259 254 254 255
323 325 327 327 327 327 329 334 333 331 330 331 330 328 329 330 332 335 339 342 340 332 307 266 246 244 251 252 246 241 234 235 239 246 252 259 260 260 260 261 255 248 249
325 328 331 331 329 328 331 334 337 335 335 334 335 334 335 337 341 344 347 351 354 357 356 314 251 237 234 231 226 222 224 230 237 247 254 255 255 261 263 265 253 242 250
326 329 331 332 332 331 332 335 340 338 339 338 338 339 338 340 343 347 351 356 0 7 15 23 48 193 206 211 219 223 226 236 240 241 244 255 256 249 248 248 240 233 248